943  
ASGM40 PGUM 211110  
RWRGUM  
WEATHER ROUNDUP FOR THE MARIANAS  
NATIONAL WEATHER SERVICE TIYAN GU  
900 PM CHST SAT APR 21 2018  
 
GUZ001>004-211200-  
MARIANA ISLANDS-  
 
CITY SKY/WX TMP DP RH WIND PRES REMARKS
 
GUAM AIRPORT PTCLDY 82 73 74 E13 29.89R  
ANDERSEN AFB MOCLDY 79 70 73 NE16 29.89R  
ROTA AIRPORT NOT AVBL  
TINIAN AP NOT AVBL  
SAIPAN AP MOCLDY 81 72 74 E17 29.89R  
 

 
 
 
 
CLICK HERE TO GO TO PREVIOUS BULLETINS.

The Nexlab GU Page Main Text Page